星链-11206 (STARLINK-11206)

导读 | 星芒AI

STARLINK-11206 是 SpaceX Starlink 卫星互联网项目中的一颗低轨卫星,属于第5批发射的星链卫星之一。该卫星于2020年11月25日随猎鹰9号火箭从卡纳维拉尔角发射升空,旨在为全球用户提供高速、低延迟的宽带互联网服务。它运行在约550公里高度的近地轨道,配备先进通信设备,支持Ka和Ku频段传输。作为星链计划的重要组成部分,STARLINK-11206 有助于扩大网络覆盖范围,提升连接质量,特别是在偏远和网络基础设施薄弱的地区。

基本信息
目录编号:
60312
目录名称:
STARLINK-11206
国际标识:
2024-133M
轨道中心:
EARTH
卫星名称:
星链-11206 (STARLINK-11206)
卫星全名:
星链-11206 (STARLINK-11206)
卫星状态:
在轨 (已飞行458 天)
发射日期:
2024-07-28 UTC
国别 :
美国 (US)
星等 :
--
轨道信息
数据来源 国际轨道数据
星历时间: 2025-10-28T10:12:43+0800
1天前
查看轨道信息
半长轴: 6737.801km
偏心率: 0.000066
轨道倾角: 53.157°
近地点辐角 85.107°
升交点赤经 80.210°
平近点角 275.002°
近地点: 359.221km
远地点: 360.111km
周期: 91.735分钟
每日圈数: 15.697321
详细信息
卫星平台:
Starlink v2.0 mini
运营商:
太空探索技术公司
运营商所在国:
美国
制造商(研发单位):
太空探索技术公司
制造商所在国:
美国
使用方式:
暂无
卫星简介
星链(Starlink)计划是由太空探索技术公司(SpaceX)提出的一个巨型低轨卫星互联网星座项目,计划在2019年至2024年间在太空搭建由约1.2万颗卫星组成的“星链”网络,其中1584颗将部署在地球上空550千米处的近地轨道,并从2020年开始工作。该卫星仍在工作。
2D轨道图
3D轨道图
轨道高度分析图
轨道倾角分析图
轨道综合分析图
查看轨道综合分析图